#datetime,building,power
2023-07-18T00:00:00,75s,1.62
2023-07-18T00:01:00,75s,1.61
2023-07-18T00:02:00,75s,1.66
2023-07-18T00:03:00,75s,1.64
2023-07-18T00:04:00,75s,1.67
2023-07-18T00:05:00,75s,1.59
2023-07-18T00:06:00,75s,1.67
2023-07-18T00:07:00,75s,1.58
2023-07-18T00:08:00,75s,1.55
2023-07-18T00:09:00,75s,1.56
2023-07-18T00:10:00,75s,1.54
2023-07-18T00:11:00,75s,1.53
2023-07-18T00:12:00,75s,1.53
2023-07-18T00:13:00,75s,1.99
2023-07-18T00:14:00,75s,2.11
2023-07-18T00:15:00,75s,1.80
2023-07-18T00:16:00,75s,1.69
2023-07-18T00:17:00,75s,1.62
2023-07-18T00:18:00,75s,1.62
2023-07-18T00:19:00,75s,2.03
2023-07-18T00:20:00,75s,1.62
2023-07-18T00:21:00,75s,1.95
2023-07-18T00:22:00,75s,1.64
2023-07-18T00:23:00,75s,1.63
2023-07-18T00:24:00,75s,1.70
2023-07-18T00:25:00,75s,1.69
2023-07-18T00:26:00,75s,1.69
2023-07-18T00:27:00,75s,1.69
2023-07-18T00:28:00,75s,1.68
2023-07-18T00:29:00,75s,1.62
2023-07-18T00:30:00,75s,1.56
2023-07-18T00:31:00,75s,1.58
2023-07-18T00:32:00,75s,1.66
2023-07-18T00:33:00,75s,1.66
2023-07-18T00:34:00,75s,1.66
2023-07-18T00:35:00,75s,1.66
2023-07-18T00:36:00,75s,1.74
2023-07-18T00:37:00,75s,1.74
2023-07-18T00:38:00,75s,1.77
2023-07-18T00:39:00,75s,1.74
2023-07-18T00:40:00,75s,1.74
2023-07-18T00:41:00,75s,1.75
2023-07-18T00:42:00,75s,1.56
2023-07-18T00:43:00,75s,1.56
2023-07-18T00:44:00,75s,1.51
2023-07-18T00:45:00,75s,1.52
2023-07-18T00:46:00,75s,1.48
2023-07-18T00:47:00,75s,1.73
2023-07-18T00:48:00,75s,1.90
2023-07-18T00:49:00,75s,1.50
2023-07-18T00:50:00,75s,1.42
2023-07-18T00:51:00,75s,1.50
2023-07-18T00:52:00,75s,1.50
2023-07-18T00:53:00,75s,1.50
2023-07-18T00:54:00,75s,1.43
2023-07-18T00:55:00,75s,1.45
2023-07-18T00:56:00,75s,1.43
2023-07-18T00:57:00,75s,1.42
2023-07-18T00:58:00,75s,1.42
2023-07-18T00:59:00,75s,1.43
2023-07-18T01:00:00,75s,1.64
2023-07-18T01:01:00,75s,1.56
2023-07-18T01:02:00,75s,1.55
2023-07-18T01:03:00,75s,1.55
2023-07-18T01:04:00,75s,1.55
2023-07-18T01:05:00,75s,1.47
2023-07-18T01:06:00,75s,1.57
2023-07-18T01:07:00,75s,1.57
2023-07-18T01:08:00,75s,1.56
2023-07-18T01:09:00,75s,1.58
2023-07-18T01:10:00,75s,2.09
2023-07-18T01:11:00,75s,1.58
2023-07-18T01:12:00,75s,1.57
2023-07-18T01:13:00,75s,1.56
2023-07-18T01:14:00,75s,1.65
2023-07-18T01:15:00,75s,1.65
2023-07-18T01:16:00,75s,1.60
2023-07-18T01:17:00,75s,1.60
2023-07-18T01:18:00,75s,1.60
2023-07-18T01:19:00,75s,1.61
2023-07-18T01:20:00,75s,1.53
2023-07-18T01:21:00,75s,1.49
2023-07-18T01:22:00,75s,1.73
2023-07-18T01:23:00,75s,1.50
2023-07-18T01:24:00,75s,1.59
2023-07-18T01:25:00,75s,1.58
2023-07-18T01:26:00,75s,1.65
2023-07-18T01:27:00,75s,1.65
2023-07-18T01:28:00,75s,1.64
2023-07-18T01:29:00,75s,1.57
2023-07-18T01:30:00,75s,1.66
2023-07-18T01:31:00,75s,1.65
2023-07-18T01:32:00,75s,1.64
2023-07-18T01:33:00,75s,1.56
2023-07-18T01:34:00,75s,1.77
2023-07-18T01:35:00,75s,1.56
2023-07-18T01:36:00,75s,1.57
2023-07-18T01:37:00,75s,1.56
2023-07-18T01:38:00,75s,1.64
2023-07-18T01:39:00,75s,1.64
2023-07-18T01:40:00,75s,1.67
2023-07-18T01:41:00,75s,1.67
2023-07-18T01:42:00,75s,1.75
2023-07-18T01:43:00,75s,1.74
2023-07-18T01:44:00,75s,1.75
2023-07-18T01:45:00,75s,1.66
2023-07-18T01:46:00,75s,1.66
2023-07-18T01:47:00,75s,1.87
2023-07-18T01:48:00,75s,1.95
2023-07-18T01:49:00,75s,1.99
2023-07-18T01:50:00,75s,1.68
2023-07-18T01:51:00,75s,1.64
2023-07-18T01:52:00,75s,1.56
2023-07-18T01:53:00,75s,1.56
2023-07-18T01:54:00,75s,1.56
2023-07-18T01:55:00,75s,1.81
2023-07-18T01:56:00,75s,1.55
2023-07-18T01:57:00,75s,1.46
2023-07-18T01:58:00,75s,1.46
2023-07-18T01:59:00,75s,1.47
2023-07-18T02:00:00,75s,1.62
2023-07-18T02:01:00,75s,1.47
2023-07-18T02:02:00,75s,1.46
2023-07-18T02:03:00,75s,1.55
2023-07-18T02:04:00,75s,1.56
2023-07-18T02:05:00,75s,1.62
2023-07-18T02:06:00,75s,1.55
2023-07-18T02:07:00,75s,1.55
2023-07-18T02:08:00,75s,1.48
2023-07-18T02:09:00,75s,1.47
2023-07-18T02:10:00,75s,1.43
2023-07-18T02:11:00,75s,1.43
2023-07-18T02:12:00,75s,1.42
2023-07-18T02:13:00,75s,1.42
2023-07-18T02:14:00,75s,1.59
2023-07-18T02:15:00,75s,1.53
2023-07-18T02:16:00,75s,1.54
2023-07-18T02:17:00,75s,1.71
2023-07-18T02:18:00,75s,1.70
2023-07-18T02:19:00,75s,1.67
2023-07-18T02:20:00,75s,1.60
2023-07-18T02:21:00,75s,1.66
2023-07-18T02:22:00,75s,1.66
2023-07-18T02:23:00,75s,1.59
2023-07-18T02:24:00,75s,1.58
2023-07-18T02:25:00,75s,1.94
2023-07-18T02:26:00,75s,1.50
2023-07-18T02:27:00,75s,1.48
2023-07-18T02:28:00,75s,1.55
2023-07-18T02:29:00,75s,1.57
2023-07-18T02:30:00,75s,1.57
2023-07-18T02:31:00,75s,1.65
2023-07-18T02:32:00,75s,1.68
2023-07-18T02:33:00,75s,1.77
2023-07-18T02:34:00,75s,1.81
2023-07-18T02:35:00,75s,1.89
2023-07-18T02:36:00,75s,1.89
2023-07-18T02:37:00,75s,2.28
2023-07-18T02:38:00,75s,1.85
2023-07-18T02:39:00,75s,1.94
2023-07-18T02:40:00,75s,1.89
2023-07-18T02:41:00,75s,1.89
2023-07-18T02:42:00,75s,1.82
2023-07-18T02:43:00,75s,1.81
2023-07-18T02:44:00,75s,1.82
2023-07-18T02:45:00,75s,1.82
2023-07-18T02:46:00,75s,1.81
2023-07-18T02:47:00,75s,1.82
2023-07-18T02:48:00,75s,1.81
2023-07-18T02:49:00,75s,2.01
2023-07-18T02:50:00,75s,2.01
2023-07-18T02:51:00,75s,2.01
2023-07-18T02:52:00,75s,1.92
2023-07-18T02:53:00,75s,2.00
2023-07-18T02:54:00,75s,2.01
2023-07-18T02:55:00,75s,1.92
2023-07-18T02:56:00,75s,1.94
2023-07-18T02:57:00,75s,2.24
2023-07-18T02:58:00,75s,1.88
2023-07-18T02:59:00,75s,1.79
2023-07-18T03:00:00,75s,1.79
2023-07-18T03:01:00,75s,1.87
2023-07-18T03:02:00,75s,2.29
2023-07-18T03:03:00,75s,1.79
2023-07-18T03:04:00,75s,1.70
2023-07-18T03:05:00,75s,1.71
2023-07-18T03:06:00,75s,1.77
2023-07-18T03:07:00,75s,1.77
2023-07-18T03:08:00,75s,1.77
2023-07-18T03:09:00,75s,1.84
2023-07-18T03:10:00,75s,1.85
2023-07-18T03:11:00,75s,1.86
2023-07-18T03:12:00,75s,1.78
2023-07-18T03:13:00,75s,1.86
2023-07-18T03:14:00,75s,1.87
2023-07-18T03:15:00,75s,2.13
2023-07-18T03:16:00,75s,1.80
2023-07-18T03:17:00,75s,1.79
2023-07-18T03:18:00,75s,1.78
2023-07-18T03:19:00,75s,1.79
2023-07-18T03:20:00,75s,1.81
2023-07-18T03:21:00,75s,1.78
2023-07-18T03:22:00,75s,1.86
2023-07-18T03:23:00,75s,1.96
2023-07-18T03:24:00,75s,1.97
2023-07-18T03:25:00,75s,1.95
2023-07-18T03:26:00,75s,1.96
2023-07-18T03:27:00,75s,1.99
2023-07-18T03:28:00,75s,1.93
2023-07-18T03:29:00,75s,1.92
2023-07-18T03:30:00,75s,1.92
2023-07-18T03:31:00,75s,1.92
2023-07-18T03:32:00,75s,1.93
2023-07-18T03:33:00,75s,1.92
2023-07-18T03:34:00,75s,1.91
2023-07-18T03:35:00,75s,1.90
2023-07-18T03:36:00,75s,1.98
2023-07-18T03:37:00,75s,1.91
2023-07-18T03:38:00,75s,1.90
2023-07-18T03:39:00,75s,1.83
2023-07-18T03:40:00,75s,1.83
2023-07-18T03:41:00,75s,1.82
2023-07-18T03:42:00,75s,1.91
2023-07-18T03:43:00,75s,1.91
2023-07-18T03:44:00,75s,1.92
2023-07-18T03:45:00,75s,1.88
2023-07-18T03:46:00,75s,1.97
2023-07-18T03:47:00,75s,1.95
2023-07-18T03:48:00,75s,2.04
2023-07-18T03:49:00,75s,1.96
2023-07-18T03:50:00,75s,1.96
2023-07-18T03:51:00,75s,1.87
2023-07-18T03:52:00,75s,1.89
2023-07-18T03:53:00,75s,2.32
2023-07-18T03:54:00,75s,1.87
2023-07-18T03:55:00,75s,2.04
2023-07-18T03:56:00,75s,1.87
2023-07-18T03:57:00,75s,1.95
2023-07-18T03:58:00,75s,2.05
2023-07-18T03:59:00,75s,2.06
2023-07-18T04:00:00,75s,2.41
2023-07-18T04:01:00,75s,2.07
2023-07-18T04:02:00,75s,2.03
2023-07-18T04:03:00,75s,1.99
2023-07-18T04:04:00,75s,1.97
2023-07-18T04:05:00,75s,1.97
2023-07-18T04:06:00,75s,1.97
2023-07-18T04:07:00,75s,1.96
2023-07-18T04:08:00,75s,1.95
2023-07-18T04:09:00,75s,1.90
2023-07-18T04:10:00,75s,1.91
2023-07-18T04:11:00,75s,1.91
2023-07-18T04:12:00,75s,1.82
2023-07-18T04:13:00,75s,1.82
2023-07-18T04:14:00,75s,1.75
2023-07-18T04:15:00,75s,1.80
2023-07-18T04:16:00,75s,1.87
2023-07-18T04:17:00,75s,2.16
2023-07-18T04:18:00,75s,2.23
2023-07-18T04:19:00,75s,1.80
2023-07-18T04:20:00,75s,1.87
2023-07-18T04:21:00,75s,1.87
2023-07-18T04:22:00,75s,1.86
2023-07-18T04:23:00,75s,1.79
2023-07-18T04:24:00,75s,1.78
2023-07-18T04:25:00,75s,1.48
2023-07-18T04:26:00,75s,1.54
2023-07-18T04:27:00,75s,1.55
2023-07-18T04:28:00,75s,1.50
2023-07-18T04:29:00,75s,1.49
2023-07-18T04:30:00,75s,2.00
2023-07-18T04:31:00,75s,1.78
2023-07-18T04:32:00,75s,1.95
2023-07-18T04:33:00,75s,1.61
2023-07-18T04:34:00,75s,1.47
2023-07-18T04:35:00,75s,1.48
2023-07-18T04:36:00,75s,1.49
2023-07-18T04:37:00,75s,1.49
2023-07-18T04:38:00,75s,1.47
2023-07-18T04:39:00,75s,1.55
2023-07-18T04:40:00,75s,1.54
2023-07-18T04:41:00,75s,1.55
2023-07-18T04:42:00,75s,1.43
2023-07-18T04:43:00,75s,1.44
2023-07-18T04:44:00,75s,1.59
2023-07-18T04:45:00,75s,1.64
2023-07-18T04:46:00,75s,1.43
2023-07-18T04:47:00,75s,1.43
2023-07-18T04:48:00,75s,1.43
2023-07-18T04:49:00,75s,1.43
2023-07-18T04:50:00,75s,1.43
2023-07-18T04:51:00,75s,1.43
2023-07-18T04:52:00,75s,1.51
2023-07-18T04:53:00,75s,1.51
2023-07-18T04:54:00,75s,1.52
2023-07-18T04:55:00,75s,1.52
2023-07-18T04:56:00,75s,1.51
2023-07-18T04:57:00,75s,1.59
2023-07-18T04:58:00,75s,1.93
2023-07-18T04:59:00,75s,1.60
2023-07-18T05:00:00,75s,10.79
2023-07-18T05:01:00,75s,10.79
2023-07-18T05:02:00,75s,10.76
2023-07-18T05:03:00,75s,10.61
2023-07-18T05:04:00,75s,10.51
2023-07-18T05:05:00,75s,1.65
2023-07-18T05:06:00,75s,2.18
2023-07-18T05:07:00,75s,1.73
2023-07-18T05:08:00,75s,1.73
2023-07-18T05:09:00,75s,1.76
2023-07-18T05:10:00,75s,1.78
2023-07-18T05:11:00,75s,1.78
2023-07-18T05:12:00,75s,1.70
2023-07-18T05:13:00,75s,1.79
2023-07-18T05:14:00,75s,1.78
2023-07-18T05:15:00,75s,1.80
2023-07-18T05:16:00,75s,1.60
2023-07-18T05:17:00,75s,1.59
2023-07-18T05:18:00,75s,1.59
2023-07-18T05:19:00,75s,1.60
2023-07-18T05:20:00,75s,1.56
2023-07-18T05:21:00,75s,1.48
2023-07-18T05:22:00,75s,1.55
2023-07-18T05:23:00,75s,1.55
2023-07-18T05:24:00,75s,1.55
2023-07-18T05:25:00,75s,1.49
2023-07-18T05:26:00,75s,1.55
2023-07-18T05:27:00,75s,1.55
2023-07-18T05:28:00,75s,1.47
2023-07-18T05:29:00,75s,1.46
2023-07-18T05:30:00,75s,1.47
2023-07-18T05:31:00,75s,1.48
2023-07-18T05:32:00,75s,1.49
2023-07-18T05:33:00,75s,1.48
2023-07-18T05:34:00,75s,1.56
2023-07-18T05:35:00,75s,1.56
2023-07-18T05:36:00,75s,1.51
2023-07-18T05:37:00,75s,1.54
2023-07-18T05:38:00,75s,1.55
2023-07-18T05:39:00,75s,1.55
2023-07-18T05:40:00,75s,1.57
2023-07-18T05:41:00,75s,2.04
2023-07-18T05:42:00,75s,1.57
2023-07-18T05:43:00,75s,1.60
2023-07-18T05:44:00,75s,1.57
2023-07-18T05:45:00,75s,1.66
2023-07-18T05:46:00,75s,1.64
2023-07-18T05:47:00,75s,1.62
2023-07-18T05:48:00,75s,1.64
2023-07-18T05:49:00,75s,2.09
2023-07-18T05:50:00,75s,2.08
2023-07-18T05:51:00,75s,2.25
2023-07-18T05:52:00,75s,2.15
2023-07-18T05:53:00,75s,2.20
2023-07-18T05:54:00,75s,2.14
2023-07-18T05:55:00,75s,1.85
2023-07-18T05:56:00,75s,1.84
2023-07-18T05:57:00,75s,1.92
2023-07-18T05:58:00,75s,1.92
2023-07-18T05:59:00,75s,1.92
2023-07-18T06:00:00,75s,1.91
2023-07-18T06:01:00,75s,2.97
2023-07-18T06:02:00,75s,3.95
2023-07-18T06:03:00,75s,14.78
2023-07-18T06:04:00,75s,3.80
2023-07-18T06:05:00,75s,3.85
2023-07-18T06:06:00,75s,14.84
2023-07-18T06:07:00,75s,14.49
2023-07-18T06:08:00,75s,14.51
2023-07-18T06:09:00,75s,14.52
2023-07-18T06:10:00,75s,14.62
2023-07-18T06:11:00,75s,14.63
2023-07-18T06:12:00,75s,14.55
2023-07-18T06:13:00,75s,14.53
2023-07-18T06:14:00,75s,14.91
2023-07-18T06:15:00,75s,14.62
2023-07-18T06:16:00,75s,26.32
2023-07-18T06:17:00,75s,26.94
2023-07-18T06:18:00,75s,26.73
2023-07-18T06:19:00,75s,26.57
2023-07-18T06:20:00,75s,26.28
2023-07-18T06:21:00,75s,26.28
2023-07-18T06:22:00,75s,26.19
2023-07-18T06:23:00,75s,25.91
2023-07-18T06:24:00,75s,25.63
2023-07-18T06:25:00,75s,25.58
2023-07-18T06:26:00,75s,25.70
2023-07-18T06:27:00,75s,25.70
2023-07-18T06:28:00,75s,25.62
2023-07-18T06:29:00,75s,25.05
2023-07-18T06:30:00,75s,23.07
2023-07-18T06:31:00,75s,21.43
2023-07-18T06:32:00,75s,20.18
2023-07-18T06:33:00,75s,20.24
2023-07-18T06:34:00,75s,20.70
2023-07-18T06:35:00,75s,20.38
2023-07-18T06:36:00,75s,20.39
2023-07-18T06:37:00,75s,20.28
2023-07-18T06:38:00,75s,20.49
2023-07-18T06:39:00,75s,20.50
2023-07-18T06:40:00,75s,20.48
2023-07-18T06:41:00,75s,20.20
2023-07-18T06:42:00,75s,20.21
2023-07-18T06:43:00,75s,20.19
2023-07-18T06:44:00,75s,20.18
2023-07-18T06:45:00,75s,20.20
2023-07-18T06:46:00,75s,19.88
2023-07-18T06:47:00,75s,19.86
2023-07-18T06:48:00,75s,19.97
2023-07-18T06:49:00,75s,20.09
2023-07-18T06:50:00,75s,20.19
2023-07-18T06:51:00,75s,20.27
2023-07-18T06:52:00,75s,20.23
2023-07-18T06:53:00,75s,20.10
2023-07-18T06:54:00,75s,20.09
2023-07-18T06:55:00,75s,20.11
2023-07-18T06:56:00,75s,20.16
2023-07-18T06:57:00,75s,20.18
2023-07-18T06:58:00,75s,25.72
2023-07-18T06:59:00,75s,20.84
2023-07-18T07:00:00,75s,22.70
2023-07-18T07:01:00,75s,24.62
2023-07-18T07:02:00,75s,26.29
2023-07-18T07:03:00,75s,26.73
2023-07-18T07:04:00,75s,26.77
2023-07-18T07:05:00,75s,26.71
2023-07-18T07:06:00,75s,26.79
2023-07-18T07:07:00,75s,26.64
2023-07-18T07:08:00,75s,27.19
2023-07-18T07:09:00,75s,27.10
2023-07-18T07:10:00,75s,27.08
2023-07-18T07:11:00,75s,27.24
2023-07-18T07:12:00,75s,27.04
2023-07-18T07:13:00,75s,27.07
2023-07-18T07:14:00,75s,27.00
2023-07-18T07:15:00,75s,26.65
2023-07-18T07:16:00,75s,27.25
2023-07-18T07:17:00,75s,26.81
2023-07-18T07:18:00,75s,26.81
2023-07-18T07:19:00,75s,26.78
2023-07-18T07:20:00,75s,26.79
2023-07-18T07:21:00,75s,26.45
2023-07-18T07:22:00,75s,26.64
2023-07-18T07:23:00,75s,26.43
2023-07-18T07:24:00,75s,26.38
2023-07-18T07:25:00,75s,26.32
2023-07-18T07:26:00,75s,26.23
2023-07-18T07:27:00,75s,25.87
2023-07-18T07:28:00,75s,25.22
2023-07-18T07:29:00,75s,24.07
2023-07-18T07:30:00,75s,20.47
2023-07-18T07:31:00,75s,21.64
2023-07-18T07:32:00,75s,20.91
2023-07-18T07:33:00,75s,20.45
2023-07-18T07:34:00,75s,20.43
2023-07-18T07:35:00,75s,20.34
2023-07-18T07:36:00,75s,20.41
2023-07-18T07:37:00,75s,20.43
2023-07-18T07:38:00,75s,20.51
2023-07-18T07:39:00,75s,20.56
2023-07-18T07:40:00,75s,20.47
2023-07-18T07:41:00,75s,20.67
2023-07-18T07:42:00,75s,20.36
2023-07-18T07:43:00,75s,20.36
2023-07-18T07:44:00,75s,20.18
2023-07-18T07:45:00,75s,20.10
2023-07-18T07:46:00,75s,20.12
2023-07-18T07:47:00,75s,20.14
2023-07-18T07:48:00,75s,20.05
2023-07-18T07:49:00,75s,20.43
2023-07-18T07:50:00,75s,20.11
2023-07-18T07:51:00,75s,20.20
2023-07-18T07:52:00,75s,20.35
2023-07-18T07:53:00,75s,21.53
2023-07-18T07:54:00,75s,23.08
2023-07-18T07:55:00,75s,24.63
2023-07-18T07:56:00,75s,25.79
2023-07-18T07:57:00,75s,25.77
2023-07-18T07:58:00,75s,25.89
2023-07-18T07:59:00,75s,25.78
2023-07-18T08:00:00,75s,25.70
2023-07-18T08:01:00,75s,25.89
2023-07-18T08:02:00,75s,26.70
2023-07-18T08:03:00,75s,26.62
2023-07-18T08:04:00,75s,26.92
2023-07-18T08:05:00,75s,26.91
2023-07-18T08:06:00,75s,27.17
2023-07-18T08:07:00,75s,27.56
2023-07-18T08:08:00,75s,27.34
2023-07-18T08:09:00,75s,27.52
2023-07-18T08:10:00,75s,27.39
2023-07-18T08:11:00,75s,27.50
2023-07-18T08:12:00,75s,27.60
2023-07-18T08:13:00,75s,27.74
2023-07-18T08:14:00,75s,27.88
2023-07-18T08:15:00,75s,27.90
2023-07-18T08:16:00,75s,28.00
2023-07-18T08:17:00,75s,27.98
2023-07-18T08:18:00,75s,28.01
2023-07-18T08:19:00,75s,28.14
2023-07-18T08:20:00,75s,28.16
2023-07-18T08:21:00,75s,28.21
2023-07-18T08:22:00,75s,28.15
2023-07-18T08:23:00,75s,28.10
2023-07-18T08:24:00,75s,28.13
2023-07-18T08:25:00,75s,28.22
2023-07-18T08:26:00,75s,28.28
2023-07-18T08:27:00,75s,28.25
2023-07-18T08:28:00,75s,28.20
2023-07-18T08:29:00,75s,28.19
2023-07-18T08:30:00,75s,28.19
2023-07-18T08:31:00,75s,28.35
2023-07-18T08:32:00,75s,28.40
2023-07-18T08:33:00,75s,28.39
2023-07-18T08:34:00,75s,28.33
2023-07-18T08:35:00,75s,28.29
2023-07-18T08:36:00,75s,28.55
2023-07-18T08:37:00,75s,28.33
2023-07-18T08:38:00,75s,28.28
2023-07-18T08:39:00,75s,37.39
2023-07-18T08:40:00,75s,37.46
2023-07-18T08:41:00,75s,37.39
2023-07-18T08:42:00,75s,37.26
2023-07-18T08:43:00,75s,37.35
2023-07-18T08:44:00,75s,28.92
2023-07-18T08:45:00,75s,29.02
2023-07-18T08:46:00,75s,28.89
2023-07-18T08:47:00,75s,28.79
2023-07-18T08:48:00,75s,29.43
2023-07-18T08:49:00,75s,28.78
2023-07-18T08:50:00,75s,29.63
2023-07-18T08:51:00,75s,29.18
2023-07-18T08:52:00,75s,29.09
2023-07-18T08:53:00,75s,28.83
2023-07-18T08:54:00,75s,29.05
2023-07-18T08:55:00,75s,28.94
2023-07-18T08:56:00,75s,28.91
2023-07-18T08:57:00,75s,29.10
2023-07-18T08:58:00,75s,29.48
2023-07-18T08:59:00,75s,28.98
2023-07-18T09:00:00,75s,29.05
2023-07-18T09:01:00,75s,28.93
2023-07-18T09:02:00,75s,28.98
2023-07-18T09:03:00,75s,29.47
2023-07-18T09:04:00,75s,29.49
2023-07-18T09:05:00,75s,29.41
2023-07-18T09:06:00,75s,29.77
2023-07-18T09:07:00,75s,29.74
2023-07-18T09:08:00,75s,29.61
2023-07-18T09:09:00,75s,29.71
2023-07-18T09:10:00,75s,29.60
2023-07-18T09:11:00,75s,29.62
2023-07-18T09:12:00,75s,29.61
2023-07-18T09:13:00,75s,29.83
2023-07-18T09:14:00,75s,29.52
2023-07-18T09:15:00,75s,29.52
2023-07-18T09:16:00,75s,29.98
2023-07-18T09:17:00,75s,29.54
2023-07-18T09:18:00,75s,29.92
2023-07-18T09:19:00,75s,29.62
2023-07-18T09:20:00,75s,29.57
2023-07-18T09:21:00,75s,29.49
2023-07-18T09:22:00,75s,29.39
2023-07-18T09:23:00,75s,29.49
2023-07-18T09:24:00,75s,29.54
2023-07-18T09:25:00,75s,29.56
2023-07-18T09:26:00,75s,29.40
2023-07-18T09:27:00,75s,29.19
2023-07-18T09:28:00,75s,29.35
2023-07-18T09:29:00,75s,29.47
2023-07-18T09:30:00,75s,29.50
2023-07-18T09:31:00,75s,29.57
2023-07-18T09:32:00,75s,29.57
2023-07-18T09:33:00,75s,29.57
2023-07-18T09:34:00,75s,30.05
2023-07-18T09:35:00,75s,29.59
2023-07-18T09:36:00,75s,29.43
2023-07-18T09:37:00,75s,29.51
2023-07-18T09:38:00,75s,29.48
2023-07-18T09:39:00,75s,29.59
2023-07-18T09:40:00,75s,29.61
2023-07-18T09:41:00,75s,29.62
2023-07-18T09:42:00,75s,29.73
2023-07-18T09:43:00,75s,29.71
2023-07-18T09:44:00,75s,29.95
2023-07-18T09:45:00,75s,30.02
2023-07-18T09:46:00,75s,30.14
2023-07-18T09:47:00,75s,29.98
2023-07-18T09:48:00,75s,29.99
2023-07-18T09:49:00,75s,30.06
2023-07-18T09:50:00,75s,30.12
2023-07-18T09:51:00,75s,29.96
2023-07-18T09:52:00,75s,29.95
2023-07-18T09:53:00,75s,29.94
2023-07-18T09:54:00,75s,29.98
2023-07-18T09:55:00,75s,30.02
2023-07-18T09:56:00,75s,29.89
2023-07-18T09:57:00,75s,29.89
2023-07-18T09:58:00,75s,29.82
2023-07-18T09:59:00,75s,30.24
2023-07-18T10:00:00,75s,29.55
2023-07-18T10:01:00,75s,30.26
2023-07-18T10:02:00,75s,29.90
2023-07-18T10:03:00,75s,29.87
2023-07-18T10:04:00,75s,29.93
2023-07-18T10:05:00,75s,30.12
2023-07-18T10:06:00,75s,30.16
2023-07-18T10:07:00,75s,30.02
2023-07-18T10:08:00,75s,30.20
2023-07-18T10:09:00,75s,29.76
2023-07-18T10:10:00,75s,29.86
2023-07-18T10:11:00,75s,29.97
2023-07-18T10:12:00,75s,29.88
2023-07-18T10:13:00,75s,30.00
2023-07-18T10:14:00,75s,30.21
2023-07-18T10:15:00,75s,30.00
2023-07-18T10:16:00,75s,30.05
2023-07-18T10:17:00,75s,30.18
2023-07-18T10:18:00,75s,30.19
2023-07-18T10:19:00,75s,30.21
2023-07-18T10:20:00,75s,30.98
2023-07-18T10:21:00,75s,30.39
2023-07-18T10:22:00,75s,30.30
2023-07-18T10:23:00,75s,30.27
2023-07-18T10:24:00,75s,30.50
2023-07-18T10:25:00,75s,30.22
2023-07-18T10:26:00,75s,30.18
2023-07-18T10:27:00,75s,30.33
2023-07-18T10:28:00,75s,30.26
2023-07-18T10:29:00,75s,30.47
2023-07-18T10:30:00,75s,30.28
2023-07-18T10:31:00,75s,30.38
2023-07-18T10:32:00,75s,30.25
2023-07-18T10:33:00,75s,30.58
2023-07-18T10:34:00,75s,30.48
2023-07-18T10:35:00,75s,30.38
2023-07-18T10:36:00,75s,30.22
2023-07-18T10:37:00,75s,30.60
2023-07-18T10:38:00,75s,30.36
2023-07-18T10:39:00,75s,30.47
2023-07-18T10:40:00,75s,30.31
2023-07-18T10:41:00,75s,30.33
2023-07-18T10:42:00,75s,30.47
2023-07-18T10:43:00,75s,30.25
2023-07-18T10:44:00,75s,30.25
2023-07-18T10:45:00,75s,30.46
2023-07-18T10:46:00,75s,30.46
2023-07-18T10:47:00,75s,30.30
2023-07-18T10:48:00,75s,30.28
2023-07-18T10:49:00,75s,30.20
2023-07-18T10:50:00,75s,31.07
2023-07-18T10:51:00,75s,30.40
2023-07-18T10:52:00,75s,30.41
2023-07-18T10:53:00,75s,30.32
2023-07-18T10:54:00,75s,30.32
2023-07-18T10:55:00,75s,30.30
2023-07-18T10:56:00,75s,30.45
2023-07-18T10:57:00,75s,30.46
2023-07-18T10:58:00,75s,30.40
2023-07-18T10:59:00,75s,30.46
2023-07-18T11:00:00,75s,30.27
2023-07-18T11:01:00,75s,30.25
2023-07-18T11:02:00,75s,30.12
2023-07-18T11:03:00,75s,30.35
2023-07-18T11:04:00,75s,30.21
2023-07-18T11:05:00,75s,30.59
2023-07-18T11:06:00,75s,30.10
2023-07-18T11:07:00,75s,30.34
2023-07-18T11:08:00,75s,30.05
2023-07-18T11:09:00,75s,30.30
2023-07-18T11:10:00,75s,30.61
2023-07-18T11:11:00,75s,30.15
2023-07-18T11:12:00,75s,30.27
2023-07-18T11:13:00,75s,30.24
2023-07-18T11:14:00,75s,30.04
2023-07-18T11:15:00,75s,30.24
2023-07-18T11:16:00,75s,30.55
2023-07-18T11:17:00,75s,30.34
2023-07-18T11:18:00,75s,30.22
2023-07-18T11:19:00,75s,30.39
2023-07-18T11:20:00,75s,30.38
2023-07-18T11:21:00,75s,30.71
2023-07-18T11:22:00,75s,30.25
2023-07-18T11:23:00,75s,30.31
2023-07-18T11:24:00,75s,30.43
2023-07-18T11:25:00,75s,30.51
2023-07-18T11:26:00,75s,30.59
2023-07-18T11:27:00,75s,30.51
2023-07-18T11:28:00,75s,30.53
2023-07-18T11:29:00,75s,30.75
2023-07-18T11:30:00,75s,30.53
2023-07-18T11:31:00,75s,30.52
2023-07-18T11:32:00,75s,30.62
2023-07-18T11:33:00,75s,30.78
2023-07-18T11:34:00,75s,30.33
2023-07-18T11:35:00,75s,30.33
2023-07-18T11:36:00,75s,30.56
2023-07-18T11:37:00,75s,30.43
2023-07-18T11:38:00,75s,30.71
2023-07-18T11:39:00,75s,30.91
2023-07-18T11:40:00,75s,31.18
2023-07-18T11:41:00,75s,30.74
2023-07-18T11:42:00,75s,31.08
2023-07-18T11:43:00,75s,30.52
2023-07-18T11:44:00,75s,30.82
2023-07-18T11:45:00,75s,30.49
2023-07-18T11:46:00,75s,30.56
2023-07-18T11:47:00,75s,30.99
2023-07-18T11:48:00,75s,30.72
2023-07-18T11:49:00,75s,30.14
2023-07-18T11:50:00,75s,30.18
2023-07-18T11:51:00,75s,30.37
2023-07-18T11:52:00,75s,30.29
2023-07-18T11:53:00,75s,30.16
2023-07-18T11:54:00,75s,29.95
2023-07-18T11:55:00,75s,29.95
2023-07-18T11:56:00,75s,30.34
2023-07-18T11:57:00,75s,30.32
2023-07-18T11:58:00,75s,30.34
2023-07-18T11:59:00,75s,30.61
2023-07-18T12:00:00,75s,30.09
2023-07-18T12:01:00,75s,30.17
2023-07-18T12:02:00,75s,30.15
2023-07-18T12:03:00,75s,30.35
2023-07-18T12:04:00,75s,30.52
2023-07-18T12:05:00,75s,30.10
2023-07-18T12:06:00,75s,29.96
2023-07-18T12:07:00,75s,30.14
2023-07-18T12:08:00,75s,29.99
2023-07-18T12:09:00,75s,30.07
2023-07-18T12:10:00,75s,30.08
2023-07-18T12:11:00,75s,29.98
2023-07-18T12:12:00,75s,29.95
2023-07-18T12:13:00,75s,29.75
2023-07-18T12:14:00,75s,29.80
2023-07-18T12:15:00,75s,29.68
2023-07-18T12:16:00,75s,29.75
2023-07-18T12:17:00,75s,29.62
2023-07-18T12:18:00,75s,29.80
2023-07-18T12:19:00,75s,29.40
2023-07-18T12:20:00,75s,29.16
2023-07-18T12:21:00,75s,25.85
2023-07-18T12:22:00,75s,27.16
2023-07-18T12:23:00,75s,29.10
2023-07-18T12:24:00,75s,28.87
2023-07-18T12:25:00,75s,28.85
2023-07-18T12:26:00,75s,28.78
2023-07-18T12:27:00,75s,29.13
2023-07-18T12:28:00,75s,29.29
2023-07-18T12:29:00,75s,28.48
2023-07-18T12:30:00,75s,28.27
2023-07-18T12:31:00,75s,28.21
2023-07-18T12:32:00,75s,28.10
2023-07-18T12:33:00,75s,28.17
2023-07-18T12:34:00,75s,28.16
2023-07-18T12:35:00,75s,28.21
2023-07-18T12:36:00,75s,28.57
2023-07-18T12:37:00,75s,29.08
2023-07-18T12:38:00,75s,28.45
2023-07-18T12:39:00,75s,28.87
2023-07-18T12:40:00,75s,28.70
2023-07-18T12:41:00,75s,28.64
2023-07-18T12:42:00,75s,28.15
2023-07-18T12:43:00,75s,28.11
2023-07-18T12:44:00,75s,28.52
2023-07-18T12:45:00,75s,28.21
2023-07-18T12:46:00,75s,28.16
2023-07-18T12:47:00,75s,28.33
2023-07-18T12:48:00,75s,27.94
2023-07-18T12:49:00,75s,27.75
2023-07-18T12:50:00,75s,27.78
2023-07-18T12:51:00,75s,28.03
2023-07-18T12:52:00,75s,27.98
2023-07-18T12:53:00,75s,28.14
2023-07-18T12:54:00,75s,27.89
2023-07-18T12:55:00,75s,28.41
2023-07-18T12:56:00,75s,28.11
2023-07-18T12:57:00,75s,28.00
2023-07-18T12:58:00,75s,27.92
2023-07-18T12:59:00,75s,27.75
2023-07-18T13:00:00,75s,27.15
2023-07-18T13:01:00,75s,34.47
2023-07-18T13:02:00,75s,33.13
2023-07-18T13:03:00,75s,30.80
2023-07-18T13:04:00,75s,30.27
2023-07-18T13:05:00,75s,29.90
2023-07-18T13:06:00,75s,29.80
2023-07-18T13:07:00,75s,21.94
2023-07-18T13:08:00,75s,21.42
2023-07-18T13:09:00,75s,21.16
2023-07-18T13:10:00,75s,21.28
2023-07-18T13:11:00,75s,21.71
2023-07-18T13:12:00,75s,21.32
2023-07-18T13:13:00,75s,21.57
2023-07-18T13:14:00,75s,23.48
2023-07-18T13:15:00,75s,25.41
2023-07-18T13:16:00,75s,27.32
2023-07-18T13:17:00,75s,28.17
2023-07-18T13:18:00,75s,28.11
2023-07-18T13:19:00,75s,28.13
2023-07-18T13:20:00,75s,28.45
2023-07-18T13:21:00,75s,28.02
2023-07-18T13:22:00,75s,28.00
2023-07-18T13:23:00,75s,28.16
2023-07-18T13:24:00,75s,27.88
2023-07-18T13:25:00,75s,28.12
2023-07-18T13:26:00,75s,28.39
2023-07-18T13:27:00,75s,28.15
2023-07-18T13:28:00,75s,28.20
2023-07-18T13:29:00,75s,28.07
2023-07-18T13:30:00,75s,27.96